Location: Civís
(42.4648°N, 1.4232°E)
Time: 14:03:37
(UTC+00:00)

Meteor 2-20 - Pass Details

Date: 26 November 2025
Orbit: 938 x 958 km, 82.5° (Epoch: 10 December)

Event Time Altitude Azimuth Distance (km) Brightness Sun altitude
Rises 05:42:25 0° 2° (N) 3,640 7.4 -13.9°
Reaches altitude 10° 05:45:25 10° 15° (NNE) 2,687 6.8 -13.3°
Maximum altitude 05:50:25 26° 70° (ENE) 1,798 6.6 -12.4°
Drops below altitude 10° 05:55:22 10° 125° (SE) 2,662 8.1 -11.6°
Sets 05:58:18 0° 138° (SE) 3,599 8.6 -11.1°
